Date String (YYYY-MM-DD hh:mm:ss) UTC,Instrument flags,Ambient pressure (hPa),Sample flow (lpm),Bypass flow (lpm),Sample temperature (°C),Ambient temperature (°C),ASC tube jacket temperature (°C),LED temperature (°C),Box temperature (°C),Sample RH (%),Span deviation,Mass concentration (μg/m³),Mass concentration (μg/m³),Mass concentration (μg/m³)
DateTimeUTC,F1_M11,P_M11,Q1_M11,Q2_M11,T1_M11,T2_M11,T3_M11,T4_M11,T5_M11,U1_M11,ZSPAN_M11,X0_M11,X2_M11,X1_M11
2022-10-06 04:00:00,,0834.6,5.02,0.00,29.9,28.4,00.0,38.7,31.7,18.2,0000.0,0009.14,0005.04,0004.59
2022-10-06 04:01:00,,0834.6,4.99,0.00,29.9,28.4,00.0,38.7,31.7,18.3,0000.0,0009.06,0005.03,0004.59
2022-10-06 04:02:00,,0834.6,5.00,0.00,29.9,28.4,00.0,38.7,31.7,18.2,0000.0,0009.02,0005.01,0004.59
2022-10-06 04:03:00,,0834.6,5.00,0.00,29.9,28.4,00.0,38.7,31.7,18.2,0000.0,0008.86,0004.99,0004.60
2022-10-06 04:04:00,,0834.7,5.00,0.00,29.9,28.4,00.0,38.7,31.8,18.5,0000.0,0008.62,0004.97,0004.60
2022-10-06 04:05:00,,0834.6,5.00,0.00,29.9,28.4,00.0,38.7,31.8,18.4,0000.0,0008.74,0004.99,0004.60
2022-10-06 04:06:00,,0834.6,4.99,0.00,30.0,28.4,00.0,38.7,31.7,18.2,0000.0,0008.80,0004.99,0004.61
2022-10-06 04:07:00,,0834.6,5.01,0.00,29.9,28.4,00.0,38.7,31.7,18.2,0000.0,0008.76,0004.99,0004.60
2022-10-06 04:08:00,,0834.6,5.01,0.00,29.9,28.4,00.0,38.7,31.7,18.3,0000.0,0008.68,0004.98,0004.61
2022-10-06 04:09:00,,0834.7,4.99,0.00,29.9,28.4,00.0,38.7,31.7,18.2,0000.0,0008.33,0004.97,0004.62
2022-10-06 04:10:00,,0834.7,5.00,0.00,29.9,28.4,00.0,38.7,31.7,18.3,0000.0,0008.11,0004.98,0004.62
2022-10-06 04:11:00,,0834.7,5.00,0.00,29.9,28.4,00.0,38.7,31.7,18.3,0000.0,0009.16,0004.96,0004.61
2022-10-06 04:12:00,,0834.7,4.99,0.00,29.9,28.4,00.0,38.7,31.6,18.3,0000.0,0010.04,0004.98,0004.62
2022-10-06 04:13:00,,0834.7,5.01,0.00,29.9,28.4,00.0,38.7,31.7,18.3,0000.0,0010.65,0005.00,0004.63
2022-10-06 04:14:00,,0834.7,4.99,0.00,29.9,28.4,00.0,38.7,31.7,18.3,0000.0,0010.78,0005.03,0004.64
2022-10-06 04:15:00,,0834.7,5.00,0.00,29.9,28.4,00.0,38.7,31.7,18.3,0000.0,0010.83,0005.05,0004.64
2022-10-06 04:16:00,,0834.7,5.00,0.00,29.9,28.4,00.0,38.7,31.7,18.3,0000.0,0010.81,0005.05,0004.66
2022-10-06 04:17:00,,0834.7,5.00,0.00,29.9,28.4,00.0,38.7,31.7,18.3,0000.0,0010.88,0005.05,0004.66
2022-10-06 04:18:00,,0834.7,5.00,0.00,29.9,28.4,00.0,38.7,31.7,18.3,0000.0,0011.07,0005.06,0004.67
2022-10-06 04:19:00,,0834.7,5.00,0.00,29.9,28.4,00.0,38.7,31.7,18.3,0000.0,0011.13,0005.08,0004.67
2022-10-06 04:20:00,,0834.7,5.00,0.00,29.9,28.4,00.0,38.7,31.7,18.3,0000.0,0011.23,0005.07,0004.67
2022-10-06 04:21:00,,0834.7,4.99,0.00,29.9,28.3,00.0,38.7,31.7,18.3,0000.0,0011.29,0005.06,0004.68
2022-10-06 04:22:00,,0834.7,5.00,0.00,29.9,28.3,00.0,38.7,31.7,18.3,0000.0,0010.14,0005.06,0004.68
2022-10-06 04:23:00,,0834.7,5.00,0.00,29.9,28.3,00.0,38.7,31.7,18.3,0000.0,0009.24,0005.03,0004.67
2022-10-06 04:24:00,,0834.7,5.00,0.00,29.9,28.3,00.0,38.7,31.6,18.3,0000.0,0008.56,0005.01,0004.66
2022-10-06 04:25:00,,0834.7,5.00,0.00,29.9,28.3,00.0,38.7,31.6,18.3,0000.0,0008.48,0004.99,0004.66
2022-10-06 04:26:00,,0834.7,5.00,0.00,29.9,28.3,00.0,38.7,31.7,18.3,0000.0,0009.12,0004.97,0004.66
2022-10-06 04:27:00,,0834.7,5.00,0.00,29.9,28.3,00.0,38.7,31.6,18.3,0000.0,0009.82,0004.99,0004.65
2022-10-06 04:28:00,,0834.7,5.00,0.00,29.9,28.3,00.0,38.7,31.6,18.4,0000.0,0009.73,0005.00,0004.67
2022-10-06 04:29:00,,0834.7,5.00,0.00,29.9,28.3,00.0,38.7,31.6,18.4,0000.0,0010.30,0004.99,0004.67
2022-10-06 04:30:00,,0834.7,5.00,0.00,29.9,28.3,00.0,38.7,31.6,18.4,0000.0,0010.23,0004.97,0004.66
2022-10-06 04:31:00,,0834.7,5.00,0.00,29.9,28.3,00.0,38.7,31.7,18.4,0000.0,0010.11,0004.97,0004.66
2022-10-06 04:32:00,,0834.7,5.01,0.00,29.9,28.3,00.0,38.7,31.7,18.4,0000.0,0010.02,0004.99,0004.67
2022-10-06 04:33:00,,0834.7,4.99,0.00,29.9,28.3,00.0,38.7,31.6,18.4,0000.0,0010.43,0004.99,0004.67
2022-10-06 04:34:00,,0834.7,5.01,0.00,29.9,28.3,00.0,38.7,31.6,18.4,0000.0,0010.45,0005.01,0004.70
2022-10-06 04:35:00,,0834.7,5.00,0.00,29.9,28.2,00.0,38.7,31.6,18.4,0000.0,0010.70,0005.03,0004.71
2022-10-06 04:36:00,,0834.7,4.99,0.00,29.9,28.3,00.0,38.7,31.6,18.4,0000.0,0010.79,0005.04,0004.73
2022-10-06 04:37:00,,0834.7,5.01,0.00,29.9,28.3,00.0,38.7,31.6,18.4,0000.0,0010.26,0005.06,0004.75
2022-10-06 04:38:00,,0834.7,4.99,0.00,29.9,28.2,00.0,38.7,31.5,18.5,0000.0,0010.34,0005.07,0004.76
2022-10-06 04:39:00,,0834.7,5.01,0.00,29.9,28.2,00.0,38.7,31.6,18.5,0000.0,0010.53,0005.08,0004.76
2022-10-06 04:40:00,,0834.7,5.00,0.00,29.9,28.3,00.0,38.7,31.6,18.5,0000.0,0009.94,0005.11,0004.77
2022-10-06 04:41:00,,0834.7,5.00,0.00,29.9,28.2,00.0,38.7,31.6,18.5,0000.0,0009.99,0005.15,0004.79
2022-10-06 04:42:00,,0834.7,4.99,0.00,29.9,28.2,00.0,38.7,31.5,18.5,0000.0,0010.35,0005.17,0004.80
2022-10-06 04:43:00,,0834.7,5.00,0.00,29.9,28.2,00.0,38.7,31.6,18.5,0000.0,0010.31,0005.16,0004.81
2022-10-06 04:44:00,,0834.7,5.01,0.00,29.9,28.2,00.0,38.7,31.6,18.5,0000.0,0009.89,0005.17,0004.82
2022-10-06 04:45:00,,0834.7,5.00,0.00,29.9,28.2,00.0,38.7,31.6,18.5,0000.0,0009.86,0005.15,0004.82
2022-10-06 04:46:00,,0834.7,4.99,0.00,29.8,28.2,00.0,38.7,31.5,18.5,0000.0,0009.68,0005.15,0004.83
2022-10-06 04:47:00,,0834.7,5.02,0.00,29.8,28.2,00.0,38.7,31.5,18.4,0000.0,0009.63,0005.17,0004.82
2022-10-06 04:48:00,,0834.7,4.99,0.00,29.8,28.2,00.0,38.7,31.6,18.4,0000.0,0009.63,0005.17,0004.82
2022-10-06 04:49:00,,0834.7,5.01,0.00,29.8,28.2,00.0,38.6,31.6,18.4,0000.0,0008.98,0005.16,0004.82
2022-10-06 04:50:00,,0834.7,4.99,0.00,29.8,28.2,00.0,38.6,31.6,18.4,0000.0,0008.88,0005.14,0004.82
2022-10-06 04:51:00,,0834.6,5.02,0.00,29.8,28.2,00.0,38.6,31.5,18.4,0000.0,0008.80,0005.13,0004.83
2022-10-06 04:52:00,,0834.7,5.00,0.00,29.8,28.2,00.0,38.6,31.5,18.4,0000.0,0008.75,0005.12,0004.82
2022-10-06 04:53:00,,0834.7,4.99,0.00,29.8,28.2,00.0,38.6,31.5,18.4,0000.0,0008.56,0005.13,0004.81
2022-10-06 04:54:00,,0834.7,5.00,0.00,29.8,28.2,00.0,38.6,31.5,18.4,0000.0,0008.60,0005.13,0004.81
2022-10-06 04:55:00,,0834.7,5.01,0.00,29.8,28.2,00.0,38.6,31.5,18.4,0000.0,0008.66,0005.13,0004.81
2022-10-06 04:56:00,,0834.7,5.00,0.00,29.8,28.2,00.0,38.6,31.5,18.4,0000.0,0008.88,0005.15,0004.82
2022-10-06 04:57:00,,0834.7,5.01,0.00,29.8,28.2,00.0,38.6,31.5,18.5,0000.0,0008.99,0005.14,0004.81
2022-10-06 04:58:00,,0834.7,5.00,0.00,29.8,28.1,00.0,38.6,31.5,18.5,0000.0,0008.96,0005.12,0004.80
2022-10-06 04:59:00,,0834.7,4.99,0.00,29.8,28.2,00.0,38.6,31.5,18.5,0000.0,0008.94,0005.11,0004.80
